Greenland, New Hampshire, United States (03840)
Lat: 43.04N, Lon: 70.83W
Wx Zone: NHZ014
Local Info
Past Weather Observations for Tuesday, July 19, 2016

NOTE: This archive is for the closest National Weather Service station to Greenland. Information may differ from the station used for current weather conditions.

Click here for Long-term Archive

Time Weather Temperature Dewpoint Humidity Pressure Winds Precip Visibility
23:58
Clear
61°F / 16°C 52°F / 11°C 72% 30.12 in
(1020 mb)
W 6.9 mph
(W 11 kph)
- 10SM
22:58
Partly Cloudy
63°F / 17°C 52°F / 11°C 68% 30.12 in
(1020 mb)
W 4.6 mph
(W 7 kph)
- 10SM
21:58
Partly Cloudy
64°F / 18°C 52°F / 11°C 64% 30.12 in
(1020 mb)
SSW 5.8 mph
(SSW 9 kph)
- 10SM
20:58
Partly Cloudy
66°F / 19°C 50°F / 10°C 56% 30.09 in
(1019 mb)
W 5.8 mph
(W 9 kph)
- 10SM
19:58
Partly Cloudy
68°F / 20°C 50°F / 10°C 53% 30.09 in
(1019 mb)
W 5.8 mph
(W 9 kph)
- 10SM
18:58
Partly Cloudy
70°F / 21°C 48°F / 9°C 46% 30.06 in
(1018 mb)
NW 6.9 mph
(NW 11 kph)
- 10SM
17:58
Partly Cloudy
73°F / 23°C 46°F / 8°C 38% 30.06 in
(1018 mb)
NW 12.7 mph
(NW 20 kph)
- 10SM
16:58
Partly Cloudy
75°F / 24°C 46°F / 8°C 36% 30.04 in
(1017 mb)
NW 16.1 mph
(NW 26 kph)
- 10SM
15:58
Partly Cloudy
75°F / 24°C 46°F / 8°C 36% 30.04 in
(1017 mb)
NW 16.1 mph
(NW 26 kph)
- 10SM
14:58
Partly Cloudy
77°F / 25°C 48°F / 9°C 36% 30.04 in
(1017 mb)
NNW 23 mph
(NNW 37 kph)
- 10SM
13:58
Partly Cloudy
79°F / 26°C 52°F / 11°C 39% 30.04 in
(1017 mb)
NW 16.1 mph
(NW 26 kph)
- 10SM
12:58
Mostly Cloudy
79°F / 26°C 54°F / 12°C 42% 30.01 in
(1016 mb)
WNW 15 mph
(WNW 24 kph)
- 10SM
11:58
Mostly Cloudy
77°F / 25°C 55°F / 13°C 47% 30.01 in
(1016 mb)
NW 13.8 mph
(NW 22 kph)
- 10SM
10:58
Mostly Cloudy
73°F / 23°C 59°F / 15°C 61% 30.01 in
(1016 mb)
SE 4.6 mph
(SE 7 kph)
- 10SM
09:58
Mostly Cloudy
75°F / 24°C 61°F / 16°C 61% 30.01 in
(1016 mb)
Variable 4.6 mph
(Variable 7 kph)
- 10SM
08:58
Partly Cloudy
75°F / 24°C 63°F / 17°C 65% 29.98 in
(1015 mb)
Variable 1.2 mph
(Variable 2 kph)
- 10SM
07:58
Mostly Cloudy
73°F / 23°C 64°F / 18°C 74% 29.98 in
(1015 mb)
N 4.6 mph
(N 7 kph)
- 10SM
06:58
Partly Cloudy
73°F / 23°C 64°F / 18°C 74% 29.98 in
(1015 mb)
Variable 3.5 mph
(Variable 6 kph)
- 10SM
05:58
Partly Cloudy
72°F / 22°C 64°F / 18°C 78% 29.95 in
(1014 mb)
W 5.8 mph
(W 9 kph)
- 10SM
04:58
Mostly Cloudy
70°F / 21°C 64°F / 18°C 83% 29.95 in
(1014 mb)
SSW 4.6 mph
(SSW 7 kph)
- 10SM
03:58
Overcast
70°F / 21°C 66°F / 19°C 88% 29.92 in
(1013 mb)
SSW 6.9 mph
(SSW 11 kph)
- 10SM
02:58
Mostly Cloudy
70°F / 21°C 66°F / 19°C 88% 29.92 in
(1013 mb)
SW 5.8 mph
(SW 9 kph)
- 10SM
01:58
Mostly Cloudy
70°F / 21°C 68°F / 20°C 94% 29.89 in
(1012 mb)
SSW 1.2 mph
(SSW 2 kph)
- 10SM
00:58
Mostly Cloudy
72°F / 22°C 68°F / 20°C 88% 29.89 in
(1012 mb)
W 3.5 mph
(W 6 kph)
- 10SM
Time Weather Temperature Dewpoint Humidity Pressure Winds Precip Visibility


Weather for websites

WeatherForYou.com, LLC is not responsible for any damages or problems caused by this service. Current weather conditions are obtained from the closest station including government and personal stations which may have varying degrees of accuracy. Weather forecasts are derived from the NOAA NDFD. Like all things, this site belongs to Jesus Christ... He just trusts us to maintain it. If you have any questions or comments email webmaster@weatherforyou.com

Copyright © 2016, WeatherForYou.com LLC. All rights reserved.